Year,Month,Day,Hour,Minute,Value (Times are PST for temperature in C)
2005,09,25,00,00,10.40
2005,09,25,00,01,10.50
2005,09,25,00,02,10.60
2005,09,25,00,03,10.60
2005,09,25,00,04,10.70
2005,09,25,00,05,10.80
2005,09,25,00,06,10.80
2005,09,25,00,07,10.80
2005,09,25,00,08,10.80
2005,09,25,00,09,10.80
2005,09,25,00,10,10.80
2005,09,25,00,11,10.80
2005,09,25,00,12,10.70
2005,09,25,00,13,10.60
2005,09,25,00,14,10.50
2005,09,25,00,15,10.40
2005,09,25,00,16,10.30
2005,09,25,00,17,10.20
2005,09,25,00,18,10.10
2005,09,25,00,19,10.10
2005,09,25,00,20,10.10
2005,09,25,00,21,10.20
2005,09,25,00,22,10.20
2005,09,25,00,23,10.20
2005,09,25,00,24,10.20
2005,09,25,00,25,10.10
2005,09,25,00,26,10.10
2005,09,25,00,27,10.10
2005,09,25,00,28,10.10
2005,09,25,00,29,10.10
2005,09,25,00,30,10.10
2005,09,25,00,31,10.10
2005,09,25,00,32,10.10
2005,09,25,00,33,9.90
2005,09,25,00,34,9.90
2005,09,25,00,35,9.90
2005,09,25,00,36,9.90
2005,09,25,00,37,9.90
2005,09,25,00,38,9.90
2005,09,25,00,39,9.90
2005,09,25,00,40,9.90
2005,09,25,00,41,9.90
2005,09,25,00,42,9.90
2005,09,25,00,43,9.90
2005,09,25,00,44,9.90
2005,09,25,00,45,9.90
2005,09,25,00,46,9.80
2005,09,25,00,47,9.80
2005,09,25,00,48,9.70
2005,09,25,00,49,9.70
2005,09,25,00,50,9.70
2005,09,25,00,51,9.70
2005,09,25,00,52,9.70
2005,09,25,00,53,9.70
2005,09,25,00,54,9.70
2005,09,25,00,55,9.70
2005,09,25,00,56,9.60
2005,09,25,00,57,9.60
2005,09,25,00,58,9.60
2005,09,25,00,59,9.60
2005,09,25,01,00,9.60
2005,09,25,01,01,9.70
2005,09,25,01,02,9.70
2005,09,25,01,03,9.70
2005,09,25,01,04,9.70
2005,09,25,01,05,9.70
2005,09,25,01,06,9.70
2005,09,25,01,07,9.70
2005,09,25,01,08,9.70
2005,09,25,01,09,9.70
2005,09,25,01,10,9.70
2005,09,25,01,11,9.70
2005,09,25,01,12,9.80
2005,09,25,01,13,9.90
2005,09,25,01,14,9.80
2005,09,25,01,15,9.80
2005,09,25,01,16,9.80
2005,09,25,01,17,9.80
2005,09,25,01,18,9.90
2005,09,25,01,19,9.90
2005,09,25,01,20,10.00
2005,09,25,01,21,10.00
2005,09,25,01,22,9.90
2005,09,25,01,23,9.90
2005,09,25,01,24,9.90
2005,09,25,01,25,9.90
2005,09,25,01,26,9.90
2005,09,25,01,27,9.90
2005,09,25,01,28,9.90
2005,09,25,01,29,9.90
2005,09,25,01,30,9.80
2005,09,25,01,31,9.80
2005,09,25,01,32,9.90
2005,09,25,01,33,9.90
2005,09,25,01,34,9.90
2005,09,25,01,35,9.80
2005,09,25,01,36,9.70
2005,09,25,01,37,9.70
2005,09,25,01,38,9.70
2005,09,25,01,39,9.70
2005,09,25,01,40,9.70
2005,09,25,01,41,9.60
2005,09,25,01,42,9.60
2005,09,25,01,43,9.60
2005,09,25,01,44,9.60
2005,09,25,01,45,9.60
2005,09,25,01,46,9.50
2005,09,25,01,47,9.60
2005,09,25,01,48,9.60
2005,09,25,01,49,9.70
2005,09,25,01,50,9.70
2005,09,25,01,51,9.80
2005,09,25,01,52,9.70
2005,09,25,01,53,9.70
2005,09,25,01,54,9.70
2005,09,25,01,55,9.70
2005,09,25,01,56,9.70
2005,09,25,01,57,9.70
2005,09,25,01,58,9.70
2005,09,25,01,59,9.70
2005,09,25,02,00,9.70
2005,09,25,02,01,9.60
2005,09,25,02,02,9.70
2005,09,25,02,03,9.70
2005,09,25,02,04,9.80
2005,09,25,02,05,9.80
2005,09,25,02,06,9.70
2005,09,25,02,07,9.80
2005,09,25,02,08,9.80
2005,09,25,02,09,9.80
2005,09,25,02,10,9.80
2005,09,25,02,11,9.70
2005,09,25,02,12,9.70
2005,09,25,02,13,9.70
2005,09,25,02,14,9.70
2005,09,25,02,15,9.70
2005,09,25,02,16,9.70
2005,09,25,02,17,9.70
2005,09,25,02,18,9.60
2005,09,25,02,19,9.50
2005,09,25,02,20,9.50
2005,09,25,02,21,9.40
2005,09,25,02,22,9.40
2005,09,25,02,23,9.40
2005,09,25,02,24,9.30
2005,09,25,02,25,9.30
2005,09,25,02,26,9.30
2005,09,25,02,27,9.40
2005,09,25,02,28,9.50
2005,09,25,02,29,9.60
2005,09,25,02,30,9.60
2005,09,25,02,31,9.60
2005,09,25,02,32,9.60
2005,09,25,02,33,9.60
2005,09,25,02,34,9.60
2005,09,25,02,35,9.50
2005,09,25,02,36,9.50
2005,09,25,02,37,9.50
2005,09,25,02,38,9.50
2005,09,25,02,39,9.50
2005,09,25,02,40,9.50
2005,09,25,02,41,9.40
2005,09,25,02,42,9.40
2005,09,25,02,43,9.40
2005,09,25,02,44,9.30
2005,09,25,02,45,9.20
2005,09,25,02,46,9.20
2005,09,25,02,47,9.20
2005,09,25,02,48,9.10
2005,09,25,02,49,9.10
2005,09,25,02,50,9.00
2005,09,25,02,51,9.10
2005,09,25,02,52,9.20
2005,09,25,02,53,9.20
2005,09,25,02,54,9.10
2005,09,25,02,55,9.00
2005,09,25,02,56,9.00
2005,09,25,02,57,9.00
2005,09,25,02,58,9.00
2005,09,25,02,59,9.10
2005,09,25,03,00,9.10
2005,09,25,03,01,9.10
2005,09,25,03,02,9.10
2005,09,25,03,03,9.10
2005,09,25,03,04,9.10
2005,09,25,03,05,9.20
2005,09,25,03,06,9.20
2005,09,25,03,07,9.20
2005,09,25,03,08,9.20
2005,09,25,03,09,9.20
2005,09,25,03,10,9.20
2005,09,25,03,11,9.20
2005,09,25,03,12,9.20
2005,09,25,03,13,9.20
2005,09,25,03,14,9.20
2005,09,25,03,15,9.20
2005,09,25,03,16,9.20
2005,09,25,03,17,9.20
2005,09,25,03,18,9.20
2005,09,25,03,19,9.10
2005,09,25,03,20,9.10
2005,09,25,03,21,9.10
2005,09,25,03,22,9.10
2005,09,25,03,23,9.00
2005,09,25,03,24,9.00
2005,09,25,03,25,9.00
2005,09,25,03,26,9.00
2005,09,25,03,27,9.00
2005,09,25,03,28,8.90
2005,09,25,03,29,9.00
2005,09,25,03,30,9.00
2005,09,25,03,31,9.00
2005,09,25,03,32,8.90
2005,09,25,03,33,8.90
2005,09,25,03,34,8.90
2005,09,25,03,35,8.90
2005,09,25,03,36,9.00
2005,09,25,03,37,8.90
2005,09,25,03,38,8.90
2005,09,25,03,39,8.80
2005,09,25,03,40,8.80
2005,09,25,03,41,8.70
2005,09,25,03,42,8.70
2005,09,25,03,43,8.70
2005,09,25,03,44,8.60
2005,09,25,03,45,8.60
2005,09,25,03,46,8.70
2005,09,25,03,47,8.70
2005,09,25,03,48,8.70
2005,09,25,03,49,8.80
2005,09,25,03,50,8.80
2005,09,25,03,51,8.90
2005,09,25,03,52,8.80
2005,09,25,03,53,8.90
2005,09,25,03,54,8.90
2005,09,25,03,55,8.90
2005,09,25,03,56,8.90
2005,09,25,03,57,8.90
2005,09,25,03,58,8.80
2005,09,25,03,59,8.90
2005,09,25,04,00,8.90
2005,09,25,04,01,8.90
2005,09,25,04,02,8.90
2005,09,25,04,03,8.90
2005,09,25,04,04,8.90
2005,09,25,04,05,8.90
2005,09,25,04,06,8.90
2005,09,25,04,07,8.90
2005,09,25,04,08,8.80
2005,09,25,04,09,8.80
2005,09,25,04,10,8.80
2005,09,25,04,11,8.70
2005,09,25,04,12,8.70
2005,09,25,04,13,8.70
2005,09,25,04,14,8.70
2005,09,25,04,15,8.70
2005,09,25,04,16,8.70
2005,09,25,04,17,8.70
2005,09,25,04,18,8.70
2005,09,25,04,19,8.70
2005,09,25,04,20,8.70
2005,09,25,04,21,8.70
2005,09,25,04,22,8.60
2005,09,25,04,23,8.60
2005,09,25,04,24,8.60
2005,09,25,04,25,8.60
2005,09,25,04,26,8.60
2005,09,25,04,27,8.60
2005,09,25,04,28,8.70
2005,09,25,04,29,8.60
2005,09,25,04,30,8.60
2005,09,25,04,31,8.60
2005,09,25,04,32,8.70
2005,09,25,04,33,8.70
2005,09,25,04,34,8.70
2005,09,25,04,35,8.80
2005,09,25,04,36,8.80
2005,09,25,04,37,8.80
2005,09,25,04,38,8.70
2005,09,25,04,39,8.70
2005,09,25,04,40,8.70
2005,09,25,04,41,8.70
2005,09,25,04,42,8.70
2005,09,25,04,43,8.60
2005,09,25,04,44,8.60
2005,09,25,04,45,8.50
2005,09,25,04,46,8.60
2005,09,25,04,47,8.50
2005,09,25,04,48,8.50
2005,09,25,04,49,8.40
2005,09,25,04,50,8.40
2005,09,25,04,51,8.40
2005,09,25,04,52,8.40
2005,09,25,04,53,8.40
2005,09,25,04,54,8.50
2005,09,25,04,55,8.50
2005,09,25,04,56,8.50
2005,09,25,04,57,8.40
2005,09,25,04,58,8.50
2005,09,25,04,59,8.50
2005,09,25,05,00,8.50
2005,09,25,05,01,8.60
2005,09,25,05,02,8.50
2005,09,25,05,03,8.50
2005,09,25,05,04,8.40
2005,09,25,05,05,8.40
2005,09,25,05,06,8.30
2005,09,25,05,07,8.30
2005,09,25,05,08,8.20
2005,09,25,05,09,8.20
2005,09,25,05,10,8.20
2005,09,25,05,11,8.20
2005,09,25,05,12,8.20
2005,09,25,05,13,8.20
2005,09,25,05,14,8.20
2005,09,25,05,15,8.20
2005,09,25,05,16,8.20
2005,09,25,05,17,8.20
2005,09,25,05,18,8.20
2005,09,25,05,19,8.20
2005,09,25,05,20,8.30
2005,09,25,05,21,8.30
2005,09,25,05,22,8.30
2005,09,25,05,23,8.30
2005,09,25,05,24,8.40
2005,09,25,05,25,8.40
2005,09,25,05,26,8.50
2005,09,25,05,27,8.50
2005,09,25,05,28,8.50
2005,09,25,05,29,8.60
2005,09,25,05,30,8.60
2005,09,25,05,31,8.60
2005,09,25,05,32,8.60
2005,09,25,05,33,8.60
2005,09,25,05,34,8.60
2005,09,25,05,35,8.50
2005,09,25,05,36,8.50
2005,09,25,05,37,8.50
2005,09,25,05,38,8.50
2005,09,25,05,39,8.40
2005,09,25,05,40,8.40
2005,09,25,05,41,8.40
2005,09,25,05,42,8.40
2005,09,25,05,43,8.30
2005,09,25,05,44,8.20
2005,09,25,05,45,8.10
2005,09,25,05,46,8.00
2005,09,25,05,47,8.00
2005,09,25,05,48,8.00
2005,09,25,05,49,8.00
2005,09,25,05,50,8.00
2005,09,25,05,51,8.10
2005,09,25,05,52,8.10
2005,09,25,05,53,8.00
2005,09,25,05,54,8.00
2005,09,25,05,55,8.00
2005,09,25,05,56,8.10
2005,09,25,05,57,8.00
2005,09,25,05,58,7.90
2005,09,25,05,59,7.90
2005,09,25,06,00,7.90
2005,09,25,06,01,7.90
2005,09,25,06,02,7.90
2005,09,25,06,03,7.90
2005,09,25,06,04,7.90
2005,09,25,06,05,7.90
2005,09,25,06,06,8.00
2005,09,25,06,07,8.00
2005,09,25,06,08,8.00
2005,09,25,06,09,8.00
2005,09,25,06,10,8.00
2005,09,25,06,11,7.90
2005,09,25,06,12,7.90
2005,09,25,06,13,7.90
2005,09,25,06,14,7.90
2005,09,25,06,15,7.90
2005,09,25,06,16,7.90
2005,09,25,06,17,8.00
2005,09,25,06,18,8.00
2005,09,25,06,19,8.10
2005,09,25,06,20,8.10
2005,09,25,06,21,8.20
2005,09,25,06,22,8.20
2005,09,25,06,23,8.20
2005,09,25,06,24,8.20
2005,09,25,06,25,8.30
2005,09,25,06,26,8.30
2005,09,25,06,27,8.40
2005,09,25,06,28,8.40
2005,09,25,06,29,8.50
2005,09,25,06,30,8.50
2005,09,25,06,31,8.60
2005,09,25,06,32,8.70
2005,09,25,06,33,8.80
2005,09,25,06,34,8.80
2005,09,25,06,35,8.90
2005,09,25,06,36,8.90
2005,09,25,06,37,9.00
2005,09,25,06,38,8.90
2005,09,25,06,39,8.80
2005,09,25,06,40,8.80
2005,09,25,06,41,8.70
2005,09,25,06,42,8.70
2005,09,25,06,43,8.70
2005,09,25,06,44,8.60
2005,09,25,06,45,8.50
2005,09,25,06,46,8.50
2005,09,25,06,47,8.40
2005,09,25,06,48,8.40
2005,09,25,06,49,8.40
2005,09,25,06,50,8.40
2005,09,25,06,51,8.40
2005,09,25,06,52,8.30
2005,09,25,06,53,8.20
2005,09,25,06,54,8.20
2005,09,25,06,55,8.20
2005,09,25,06,56,8.30
2005,09,25,06,57,8.20
2005,09,25,06,58,8.20
2005,09,25,06,59,8.20
2005,09,25,07,00,8.10
2005,09,25,07,01,8.10
2005,09,25,07,02,8.00
2005,09,25,07,03,8.00
2005,09,25,07,04,7.90
2005,09,25,07,05,7.90
2005,09,25,07,06,7.90
2005,09,25,07,07,7.90
2005,09,25,07,08,7.90
2005,09,25,07,09,7.90
2005,09,25,07,10,8.00
2005,09,25,07,11,8.00
2005,09,25,07,12,7.90
2005,09,25,07,13,7.90
2005,09,25,07,14,7.90
2005,09,25,07,15,7.90
2005,09,25,07,16,7.90
2005,09,25,07,17,7.90
2005,09,25,07,18,7.90
2005,09,25,07,19,7.90
2005,09,25,07,20,8.00
2005,09,25,07,21,8.00
2005,09,25,07,22,8.10
2005,09,25,07,23,8.20
2005,09,25,07,24,8.30
2005,09,25,07,25,8.30
2005,09,25,07,26,8.40
2005,09,25,07,27,8.50
2005,09,25,07,28,8.50
2005,09,25,07,29,8.50
2005,09,25,07,30,8.50
2005,09,25,07,31,8.40
2005,09,25,07,32,8.40
2005,09,25,07,33,8.40
2005,09,25,07,34,8.50
2005,09,25,07,35,8.50
2005,09,25,07,36,8.60
2005,09,25,07,37,8.70
2005,09,25,07,38,8.70
2005,09,25,07,39,8.80
2005,09,25,07,40,8.90
2005,09,25,07,41,9.00
2005,09,25,07,42,9.10
2005,09,25,07,43,9.10
2005,09,25,07,44,9.20
2005,09,25,07,45,9.20
2005,09,25,07,46,9.30
2005,09,25,07,47,9.40
2005,09,25,07,48,9.50
2005,09,25,07,49,9.60
2005,09,25,07,50,9.60
2005,09,25,07,51,9.70
2005,09,25,07,52,9.90
2005,09,25,07,53,9.90
2005,09,25,07,54,10.00
2005,09,25,07,55,10.10
2005,09,25,07,56,10.10
2005,09,25,07,57,10.20
2005,09,25,07,58,10.20
2005,09,25,07,59,10.30
2005,09,25,08,00,10.40
2005,09,25,08,01,10.60
2005,09,25,08,02,10.60
2005,09,25,08,03,10.70
2005,09,25,08,04,10.70
2005,09,25,08,05,10.80
2005,09,25,08,06,10.90
2005,09,25,08,07,10.90
2005,09,25,08,08,11.00
2005,09,25,08,09,11.10
2005,09,25,08,10,11.10
2005,09,25,08,11,11.10
2005,09,25,08,12,11.10
2005,09,25,08,13,11.10
2005,09,25,08,14,11.10
2005,09,25,08,15,11.10
2005,09,25,08,16,11.10
2005,09,25,08,17,11.10
2005,09,25,08,18,11.20
2005,09,25,08,19,11.20
2005,09,25,08,20,11.20
2005,09,25,08,21,11.20
2005,09,25,08,22,11.30
2005,09,25,08,23,11.30
2005,09,25,08,24,11.30
2005,09,25,08,25,11.30
2005,09,25,08,26,11.30
2005,09,25,08,27,11.30
2005,09,25,08,28,11.30
2005,09,25,08,29,11.30
2005,09,25,08,30,11.30
2005,09,25,08,31,11.30
2005,09,25,08,32,11.30
2005,09,25,08,33,11.30
2005,09,25,08,34,11.30
2005,09,25,08,35,11.40
2005,09,25,08,36,11.40
2005,09,25,08,37,11.40
2005,09,25,08,38,11.40
2005,09,25,08,39,11.40
2005,09,25,08,40,11.50
2005,09,25,08,41,11.60
2005,09,25,08,42,11.60
2005,09,25,08,43,11.70
2005,09,25,08,44,11.70
2005,09,25,08,45,11.60
2005,09,25,08,46,11.60
2005,09,25,08,47,11.60
2005,09,25,08,48,11.60
2005,09,25,08,49,11.60
2005,09,25,08,50,11.70
2005,09,25,08,51,11.70
2005,09,25,08,52,11.70
2005,09,25,08,53,11.80
2005,09,25,08,54,11.80
2005,09,25,08,55,11.80
2005,09,25,08,56,11.80
2005,09,25,08,57,11.80
2005,09,25,08,58,11.70
2005,09,25,08,59,11.70
2005,09,25,09,00,11.60
2005,09,25,09,01,11.70
2005,09,25,09,02,11.70
2005,09,25,09,03,11.80
2005,09,25,09,04,11.80
2005,09,25,09,05,11.70
2005,09,25,09,06,11.80
2005,09,25,09,07,11.80
2005,09,25,09,08,11.80
2005,09,25,09,09,11.80
2005,09,25,09,10,11.90
2005,09,25,09,11,11.90
2005,09,25,09,12,12.00
2005,09,25,09,13,12.00
2005,09,25,09,14,12.10
2005,09,25,09,15,12.10
2005,09,25,09,16,12.30
2005,09,25,09,17,12.30
2005,09,25,09,18,12.30
2005,09,25,09,19,12.40
2005,09,25,09,20,12.30
2005,09,25,09,21,12.30
2005,09,25,09,22,12.30
2005,09,25,09,23,12.40
2005,09,25,09,24,12.40
2005,09,25,09,25,12.40
2005,09,25,09,26,12.40
2005,09,25,09,27,12.50
2005,09,25,09,28,12.50
2005,09,25,09,29,12.40
2005,09,25,09,30,12.50
2005,09,25,09,31,12.60
2005,09,25,09,32,12.70
2005,09,25,09,33,12.80
2005,09,25,09,34,12.80
2005,09,25,09,35,12.80
2005,09,25,09,36,12.80
2005,09,25,09,37,12.80
2005,09,25,09,38,12.80
2005,09,25,09,39,12.80
2005,09,25,09,40,12.80
2005,09,25,09,41,12.80
2005,09,25,09,42,12.80
2005,09,25,09,43,12.80
2005,09,25,09,44,12.80
2005,09,25,09,45,12.80
2005,09,25,09,46,12.80
2005,09,25,09,47,12.90
2005,09,25,09,48,13.00
2005,09,25,09,49,13.00
2005,09,25,09,50,13.10
2005,09,25,09,51,13.10
2005,09,25,09,52,13.00
2005,09,25,09,53,13.00
2005,09,25,09,54,13.00
2005,09,25,09,55,13.10
2005,09,25,09,56,13.20
2005,09,25,09,57,13.10
2005,09,25,09,58,13.10
2005,09,25,09,59,13.20
2005,09,25,10,00,13.20
2005,09,25,10,01,13.20
2005,09,25,10,02,13.20
2005,09,25,10,03,13.20
2005,09,25,10,04,13.20
2005,09,25,10,05,13.20
2005,09,25,10,06,13.20
2005,09,25,10,07,13.20
2005,09,25,10,08,13.20
2005,09,25,10,09,13.10
2005,09,25,10,10,13.00
2005,09,25,10,11,13.10
2005,09,25,10,12,13.00
2005,09,25,10,13,13.00
2005,09,25,10,14,13.10
2005,09,25,10,15,13.10
2005,09,25,10,16,13.10
2005,09,25,10,17,13.00
2005,09,25,10,18,13.00
2005,09,25,10,19,13.10
2005,09,25,10,20,13.20
2005,09,25,10,21,13.20
2005,09,25,10,22,13.20
2005,09,25,10,23,13.10
2005,09,25,10,24,13.00
2005,09,25,10,25,12.90
2005,09,25,10,26,12.90
2005,09,25,10,27,13.00
2005,09,25,10,28,13.00
2005,09,25,10,29,13.10
2005,09,25,10,30,13.00
2005,09,25,10,31,13.00
2005,09,25,10,32,13.10
2005,09,25,10,33,13.10
2005,09,25,10,34,13.10
2005,09,25,10,35,13.10
2005,09,25,10,36,13.00
2005,09,25,10,37,13.00
2005,09,25,10,38,13.10
2005,09,25,10,39,13.10
2005,09,25,10,40,13.00
2005,09,25,10,41,13.10
2005,09,25,10,42,13.10
2005,09,25,10,43,13.10
2005,09,25,10,44,13.10
2005,09,25,10,45,13.10
2005,09,25,10,46,13.00
2005,09,25,10,47,13.00
2005,09,25,10,48,13.00
2005,09,25,10,49,13.10
2005,09,25,10,50,13.10
2005,09,25,10,51,13.20
2005,09,25,10,52,13.30
2005,09,25,10,53,13.30
2005,09,25,10,54,13.30
2005,09,25,10,55,13.40
2005,09,25,10,56,13.40
2005,09,25,10,57,13.40
2005,09,25,10,58,13.40
2005,09,25,10,59,13.40
2005,09,25,11,00,13.40
2005,09,25,11,01,13.50
2005,09,25,11,02,13.60
2005,09,25,11,03,13.60
2005,09,25,11,04,13.70
2005,09,25,11,05,13.70
2005,09,25,11,06,13.70
2005,09,25,11,07,13.60
2005,09,25,11,08,13.50
2005,09,25,11,09,13.50
2005,09,25,11,10,13.40
2005,09,25,11,11,13.40
2005,09,25,11,12,13.40
2005,09,25,11,13,13.50
2005,09,25,11,14,13.50
2005,09,25,11,15,13.70
2005,09,25,11,16,13.70
2005,09,25,11,17,13.70
2005,09,25,11,18,13.80
2005,09,25,11,19,13.80
2005,09,25,11,20,13.80
2005,09,25,11,21,13.70
2005,09,25,11,22,13.70
2005,09,25,11,23,13.80
2005,09,25,11,24,13.90
2005,09,25,11,25,13.90
2005,09,25,11,26,13.90
2005,09,25,11,27,13.80
2005,09,25,11,28,13.70
2005,09,25,11,29,13.80
2005,09,25,11,30,13.80
2005,09,25,11,31,13.90
2005,09,25,11,32,13.80
2005,09,25,11,33,13.80
2005,09,25,11,34,13.80
2005,09,25,11,35,13.90
2005,09,25,11,36,14.10
2005,09,25,11,37,14.00
2005,09,25,11,38,14.00
2005,09,25,11,39,14.10
2005,09,25,11,40,14.20
2005,09,25,11,41,14.20
2005,09,25,11,42,14.20
2005,09,25,11,43,14.20
2005,09,25,11,44,14.10
2005,09,25,11,45,14.00
2005,09,25,11,46,13.90
2005,09,25,11,47,13.80
2005,09,25,11,48,13.70
2005,09,25,11,49,13.90
2005,09,25,11,50,14.00
2005,09,25,11,51,13.90
2005,09,25,11,52,14.00
2005,09,25,11,53,14.20
2005,09,25,11,54,14.40
2005,09,25,11,55,14.40
2005,09,25,11,56,14.40
2005,09,25,11,57,14.30
2005,09,25,11,58,14.30
2005,09,25,11,59,14.30
2005,09,25,12,00,14.20
2005,09,25,12,01,14.10
2005,09,25,12,02,14.10
2005,09,25,12,03,14.10
2005,09,25,12,04,14.00
2005,09,25,12,05,14.00
2005,09,25,12,06,14.00
2005,09,25,12,07,14.20
2005,09,25,12,08,14.30
2005,09,25,12,09,14.30
2005,09,25,12,10,14.20
2005,09,25,12,11,14.30
2005,09,25,12,12,14.40
2005,09,25,12,13,14.40
2005,09,25,12,14,14.30
2005,09,25,12,15,14.30
2005,09,25,12,16,14.30
2005,09,25,12,17,14.40
2005,09,25,12,18,14.50
2005,09,25,12,19,14.60
2005,09,25,12,20,14.70
2005,09,25,12,21,14.60
2005,09,25,12,22,14.60
2005,09,25,12,23,14.60
2005,09,25,12,24,14.70
2005,09,25,12,25,14.70
2005,09,25,12,26,14.80
2005,09,25,12,27,14.90
2005,09,25,12,28,15.00
2005,09,25,12,29,15.10
2005,09,25,12,30,15.10
2005,09,25,12,31,15.10
2005,09,25,12,32,15.00
2005,09,25,12,33,15.00
2005,09,25,12,34,15.10
2005,09,25,12,35,15.20
2005,09,25,12,36,15.20
2005,09,25,12,37,15.20
2005,09,25,12,38,15.20
2005,09,25,12,39,15.00
2005,09,25,12,40,15.00
2005,09,25,12,41,15.00
2005,09,25,12,42,15.00
2005,09,25,12,43,15.00
2005,09,25,12,44,15.10
2005,09,25,12,45,15.10
2005,09,25,12,46,15.10
2005,09,25,12,47,15.00
2005,09,25,12,48,15.10
2005,09,25,12,49,15.20
2005,09,25,12,50,15.00
2005,09,25,12,51,15.00
2005,09,25,12,52,15.00
2005,09,25,12,53,15.00
2005,09,25,12,54,15.00
2005,09,25,12,55,15.00
2005,09,25,12,56,15.00
2005,09,25,12,57,15.10
2005,09,25,12,58,15.30
2005,09,25,12,59,15.30
2005,09,25,13,00,15.50
2005,09,25,13,01,15.50
2005,09,25,13,02,15.60
2005,09,25,13,03,15.60
2005,09,25,13,04,15.60
2005,09,25,13,05,15.60
2005,09,25,13,06,15.60
2005,09,25,13,07,15.50
2005,09,25,13,08,15.40
2005,09,25,13,09,15.40
2005,09,25,13,10,15.40
2005,09,25,13,11,15.40
2005,09,25,13,12,15.40
2005,09,25,13,13,15.50
2005,09,25,13,14,15.50
2005,09,25,13,15,15.60
2005,09,25,13,16,15.60
2005,09,25,13,17,15.60
2005,09,25,13,18,15.60
2005,09,25,13,19,15.70
2005,09,25,13,20,15.70
2005,09,25,13,21,15.90
2005,09,25,13,22,15.90
2005,09,25,13,23,15.90
2005,09,25,13,24,15.90
2005,09,25,13,25,16.00
2005,09,25,13,26,16.10
2005,09,25,13,27,16.10
2005,09,25,13,28,16.20
2005,09,25,13,29,16.20
2005,09,25,13,30,16.30
2005,09,25,13,31,16.30
2005,09,25,13,32,16.40
2005,09,25,13,33,16.30
2005,09,25,13,34,16.30
2005,09,25,13,35,16.20
2005,09,25,13,36,16.20
2005,09,25,13,37,16.20
2005,09,25,13,38,16.20
2005,09,25,13,39,16.20
2005,09,25,13,40,16.20
2005,09,25,13,41,16.30
2005,09,25,13,42,16.30
2005,09,25,13,43,16.30
2005,09,25,13,44,16.30
2005,09,25,13,45,16.30
2005,09,25,13,46,16.30
2005,09,25,13,47,16.30
2005,09,25,13,48,16.30
2005,09,25,13,49,16.30
2005,09,25,13,50,16.30
2005,09,25,13,51,16.30
2005,09,25,13,52,16.30
2005,09,25,13,53,16.30
2005,09,25,13,54,16.20
2005,09,25,13,55,16.10
2005,09,25,13,56,16.10
2005,09,25,13,57,16.10
2005,09,25,13,58,16.20
2005,09,25,13,59,16.40
2005,09,25,14,00,16.50
2005,09,25,14,01,16.50
2005,09,25,14,02,16.40
2005,09,25,14,03,16.30
2005,09,25,14,04,16.10
2005,09,25,14,05,16.10
2005,09,25,14,06,16.10
2005,09,25,14,07,16.10
2005,09,25,14,08,16.10
2005,09,25,14,09,16.10
2005,09,25,14,10,16.00
2005,09,25,14,11,16.10
2005,09,25,14,12,16.10
2005,09,25,14,13,16.20
2005,09,25,14,14,16.10
2005,09,25,14,15,16.00
2005,09,25,14,16,15.90
2005,09,25,14,17,16.00
2005,09,25,14,18,16.20
2005,09,25,14,19,16.40
2005,09,25,14,20,16.50
2005,09,25,14,21,16.70
2005,09,25,14,22,16.70
2005,09,25,14,23,16.80
2005,09,25,14,24,16.80
2005,09,25,14,25,16.80
2005,09,25,14,26,16.80
2005,09,25,14,27,16.80
2005,09,25,14,28,16.70
2005,09,25,14,29,16.70
2005,09,25,14,30,16.70
2005,09,25,14,31,16.60
2005,09,25,14,32,16.60
2005,09,25,14,33,16.40
2005,09,25,14,34,16.20
2005,09,25,14,35,16.10
2005,09,25,14,36,15.90
2005,09,25,14,37,15.80
2005,09,25,14,38,15.80
2005,09,25,14,39,15.90
2005,09,25,14,40,16.00
2005,09,25,14,41,16.10
2005,09,25,14,42,16.10
2005,09,25,14,43,16.10
2005,09,25,14,44,16.10
2005,09,25,14,45,16.10
2005,09,25,14,46,16.10
2005,09,25,14,47,16.10
2005,09,25,14,48,16.10
2005,09,25,14,49,16.20
2005,09,25,14,50,16.30
2005,09,25,14,51,16.30
2005,09,25,14,52,16.30
2005,09,25,14,53,16.40
2005,09,25,14,54,16.40
2005,09,25,14,55,16.40
2005,09,25,14,56,16.40
2005,09,25,14,57,16.40
2005,09,25,14,58,16.50
2005,09,25,14,59,16.60
2005,09,25,15,00,16.40
2005,09,25,15,01,16.50
2005,09,25,15,02,16.60
2005,09,25,15,03,16.70
2005,09,25,15,04,16.80
2005,09,25,15,05,16.90
2005,09,25,15,06,16.80
2005,09,25,15,07,16.80
2005,09,25,15,08,16.70
2005,09,25,15,09,16.70
2005,09,25,15,10,16.80
2005,09,25,15,11,16.90
2005,09,25,15,12,17.00
2005,09,25,15,13,17.00
2005,09,25,15,14,16.90
2005,09,25,15,15,16.70
2005,09,25,15,16,16.70
2005,09,25,15,17,16.60
2005,09,25,15,18,16.60
2005,09,25,15,19,16.50
2005,09,25,15,20,16.60
2005,09,25,15,21,16.70
2005,09,25,15,22,16.70
2005,09,25,15,23,16.60
2005,09,25,15,24,16.60
2005,09,25,15,25,16.60
2005,09,25,15,26,16.60
2005,09,25,15,27,16.70
2005,09,25,15,28,16.70
2005,09,25,15,29,16.70
2005,09,25,15,30,16.80
2005,09,25,15,31,16.80
2005,09,25,15,32,16.80
2005,09,25,15,33,16.80
2005,09,25,15,34,16.80
2005,09,25,15,35,16.70
2005,09,25,15,36,16.60
2005,09,25,15,37,16.50
2005,09,25,15,38,16.40
2005,09,25,15,39,16.50
2005,09,25,15,40,16.40
2005,09,25,15,41,16.40
2005,09,25,15,42,16.40
2005,09,25,15,43,16.40
2005,09,25,15,44,16.40
2005,09,25,15,45,16.40
2005,09,25,15,46,16.30
2005,09,25,15,47,16.30
2005,09,25,15,48,16.40
2005,09,25,15,49,16.40
2005,09,25,15,50,16.40
2005,09,25,15,51,16.50
2005,09,25,15,52,16.70
2005,09,25,15,53,16.70
2005,09,25,15,54,16.70
2005,09,25,15,55,16.70
2005,09,25,15,56,16.60
2005,09,25,15,57,16.60
2005,09,25,15,58,16.60
2005,09,25,15,59,16.60
2005,09,25,16,00,16.60
2005,09,25,16,01,16.60
2005,09,25,16,02,16.60
2005,09,25,16,03,16.60
2005,09,25,16,04,16.70
2005,09,25,16,05,16.70
2005,09,25,16,06,16.70
2005,09,25,16,07,16.70
2005,09,25,16,08,16.70
2005,09,25,16,09,16.60
2005,09,25,16,10,16.60
2005,09,25,16,11,16.60
2005,09,25,16,12,16.70
2005,09,25,16,13,16.70
2005,09,25,16,14,16.70
2005,09,25,16,15,16.70
2005,09,25,16,16,16.60
2005,09,25,16,17,16.50
2005,09,25,16,18,16.60
2005,09,25,16,19,16.70
2005,09,25,16,20,16.80
2005,09,25,16,21,16.90
2005,09,25,16,22,16.90
2005,09,25,16,23,16.80
2005,09,25,16,24,16.70
2005,09,25,16,25,16.70
2005,09,25,16,26,16.70
2005,09,25,16,27,16.60
2005,09,25,16,28,16.40
2005,09,25,16,29,16.40
2005,09,25,16,30,16.40
2005,09,25,16,31,16.50
2005,09,25,16,32,16.60
2005,09,25,16,33,16.60
2005,09,25,16,34,16.60
2005,09,25,16,35,16.60
2005,09,25,16,36,16.50
2005,09,25,16,37,16.50
2005,09,25,16,38,16.60
2005,09,25,16,39,16.60
2005,09,25,16,40,16.70
2005,09,25,16,41,16.70
2005,09,25,16,42,16.70
2005,09,25,16,43,16.70
2005,09,25,16,44,16.70
2005,09,25,16,45,16.80
2005,09,25,16,46,16.80
2005,09,25,16,47,16.70
2005,09,25,16,48,16.70
2005,09,25,16,49,16.70
2005,09,25,16,50,16.60
2005,09,25,16,51,16.40
2005,09,25,16,52,16.40
2005,09,25,16,53,16.30
2005,09,25,16,54,16.30
2005,09,25,16,55,16.30
2005,09,25,16,56,16.40
2005,09,25,16,57,16.30
2005,09,25,16,58,16.30
2005,09,25,16,59,16.30
2005,09,25,17,00,16.30
2005,09,25,17,01,16.40
2005,09,25,17,02,16.50
2005,09,25,17,03,16.70
2005,09,25,17,04,16.70
2005,09,25,17,05,16.70
2005,09,25,17,06,16.80
2005,09,25,17,07,16.80
2005,09,25,17,08,16.80
2005,09,25,17,09,16.80
2005,09,25,17,10,16.80
2005,09,25,17,11,16.80
2005,09,25,17,12,16.90
2005,09,25,17,13,16.90
2005,09,25,17,14,16.80
2005,09,25,17,15,16.70
2005,09,25,17,16,16.70
2005,09,25,17,17,16.50
2005,09,25,17,18,16.40
2005,09,25,17,19,16.40
2005,09,25,17,20,16.40
2005,09,25,17,21,16.40
2005,09,25,17,22,16.40
2005,09,25,17,23,16.40
2005,09,25,17,24,16.40
2005,09,25,17,25,16.40
2005,09,25,17,26,16.50
2005,09,25,17,27,16.40
2005,09,25,17,28,16.40
2005,09,25,17,29,16.40
2005,09,25,17,30,16.40
2005,09,25,17,31,16.40
2005,09,25,17,32,16.40
2005,09,25,17,33,16.40
2005,09,25,17,34,16.40
2005,09,25,17,35,16.40
2005,09,25,17,36,16.40
2005,09,25,17,37,16.40
2005,09,25,17,38,16.50